Time,TemperatureF,DewpointF,PressureIn,WindDirection,WindDirectionDegrees,WindSpeedMPH,WindSpeedGustMPH,Humidity,HourlyPrecipIn,Conditions,Clouds,dailyrainin,SoftwareType,DateUTC
2013-04-29 00:14:00,55.4,54.0,30.04,SE,139,0.0,2.0,96,0.04,,,0.01,weatherlink.com 1.10,2013-04-29 04:14:00,
2013-04-29 00:29:00,55.6,55.0,30.04,SSE,163,0.0,6.0,96,0.03,,,0.01,weatherlink.com 1.10,2013-04-29 04:29:00,
2013-04-29 00:44:00,55.7,55.0,30.05,SSE,152,0.0,2.0,96,0.03,,,0.02,weatherlink.com 1.10,2013-04-29 04:44:00,
2013-04-29 00:59:00,55.9,55.0,30.05,SSE,153,0.0,3.0,96,0.02,,,0.02,weatherlink.com 1.10,2013-04-29 04:59:00,
2013-04-29 01:14:00,56.0,55.0,30.05,SSE,149,3.0,3.0,96,0.02,,,0.03,weatherlink.com 1.10,2013-04-29 05:14:00,
2013-04-29 01:29:00,56.1,55.0,30.05,SSE,160,2.0,6.0,96,0.03,,,0.04,weatherlink.com 1.10,2013-04-29 05:29:00,
2013-04-29 01:44:00,56.2,55.0,30.05,SE,136,0.0,2.0,96,0.05,,,0.07,weatherlink.com 1.10,2013-04-29 05:44:00,
2013-04-29 01:59:00,56.3,55.0,30.05,SSE,153,0.0,0.0,96,0.08,,,0.10,weatherlink.com 1.10,2013-04-29 05:59:00,
2013-04-29 02:14:00,56.3,55.0,30.05,NW,309,0.0,2.0,96,0.10,,,0.13,weatherlink.com 1.10,2013-04-29 06:14:00,
2013-04-29 02:30:00,56.2,55.0,30.04,NNW,328,2.0,2.0,96,0.11,,,0.16,weatherlink.com 1.10,2013-04-29 06:30:00,
2013-04-29 02:45:00,56.1,55.0,30.04,WNW,290,0.0,2.0,96,0.13,,,0.20,weatherlink.com 1.10,2013-04-29 06:45:00,
2013-04-29 03:00:00,55.9,55.0,30.03,WNW,300,0.0,2.0,96,0.12,,,0.22,weatherlink.com 1.10,2013-04-29 07:00:00,
2013-04-29 03:15:00,55.7,55.0,30.03,West,271,0.0,1.0,96,0.11,,,0.24,weatherlink.com 1.10,2013-04-29 07:15:00,
2013-04-29 03:30:00,55.6,55.0,30.03,NE,44,0.0,1.0,96,0.08,,,0.24,weatherlink.com 1.10,2013-04-29 07:30:00,
2013-04-29 03:45:00,55.7,55.0,30.03,NE,44,0.0,1.0,96,0.04,,,0.24,weatherlink.com 1.10,2013-04-29 07:45:00,
2013-04-29 03:59:00,55.6,55.0,30.03,NE,37,0.0,1.0,96,0.02,,,0.24,weatherlink.com 1.10,2013-04-29 07:59:00,
2013-04-29 04:15:00,55.4,54.0,30.03,NE,37,0.0,0.0,96,0.01,,,0.25,weatherlink.com 1.10,2013-04-29 08:15:00,
2013-04-29 04:30:00,55.5,54.0,30.03,NE,37,0.0,1.0,96,0.01,,,0.25,weatherlink.com 1.10,2013-04-29 08:30:00,
2013-04-29 04:45:00,55.5,54.0,30.03,NW,310,1.0,2.0,96,0.02,,,0.26,weatherlink.com 1.10,2013-04-29 08:45:00,
2013-04-29 05:00:00,55.1,54.0,30.02,NE,42,0.0,2.0,96,0.03,,,0.27,weatherlink.com 1.10,2013-04-29 09:00:00,
2013-04-29 05:15:00,54.5,53.0,30.01,ENE,60,0.0,4.0,95,0.03,,,0.28,weatherlink.com 1.10,2013-04-29 09:15:00,
2013-04-29 05:30:00,54.2,53.0,30.01,East,86,1.0,3.0,96,0.03,,,0.28,weatherlink.com 1.10,2013-04-29 09:30:00,
2013-04-29 05:45:00,53.9,53.0,30.02,NNW,333,0.0,2.0,95,0.03,,,0.29,weatherlink.com 1.10,2013-04-29 09:45:00,
2013-04-29 06:00:00,53.8,52.0,30.02,ENE,69,0.0,2.0,95,0.02,,,0.29,weatherlink.com 1.10,2013-04-29 10:00:00,
2013-04-29 06:15:00,53.8,52.0,30.03,North,8,0.0,2.0,95,0.01,,,0.29,weatherlink.com 1.10,2013-04-29 10:15:00,
2013-04-29 06:29:00,53.7,52.0,30.04,NE,39,0.0,2.0,95,0.02,,,0.30,weatherlink.com 1.10,2013-04-29 10:29:00,
2013-04-29 06:45:00,53.8,52.0,30.04,NE,55,0.0,0.0,95,0.02,,,0.31,weatherlink.com 1.10,2013-04-29 10:45:00,
2013-04-29 06:59:00,53.8,53.0,30.05,NNE,24,0.0,1.0,96,0.03,,,0.32,weatherlink.com 1.10,2013-04-29 10:59:00,
2013-04-29 07:15:00,54.0,53.0,30.04,ENE,71,0.0,0.0,96,0.03,,,0.33,weatherlink.com 1.10,2013-04-29 11:15:00,
2013-04-29 07:30:00,53.9,53.0,30.04,ENE,66,0.0,2.0,96,0.04,,,0.34,weatherlink.com 1.10,2013-04-29 11:30:00,
2013-04-29 07:45:00,54.9,54.0,30.05,ENE,65,0.0,1.0,97,0.03,,,0.34,weatherlink.com 1.10,2013-04-29 11:45:00,
2013-04-29 08:00:00,54.4,53.0,30.05,ENE,71,1.0,2.0,95,0.02,,,0.34,weatherlink.com 1.10,2013-04-29 12:00:00,
2013-04-29 08:15:00,54.5,53.0,30.05,ENE,65,0.0,1.0,96,0.01,,,0.34,weatherlink.com 1.10,2013-04-29 12:15:00,
2013-04-29 08:31:00,54.9,54.0,30.05,East,99,0.0,1.0,96,0.00,,,0.34,weatherlink.com 1.10,2013-04-29 12:31:00,
2013-04-29 08:45:00,55.0,54.0,30.05,North,354,0.0,1.0,95,0.00,,,0.34,weatherlink.com 1.10,2013-04-29 12:45:00,
2013-04-29 09:00:00,54.8,53.0,30.05,East,79,0.0,4.0,94,0.00,,,0.34,weatherlink.com 1.10,2013-04-29 13:00:00,
2013-04-29 09:15:00,55.4,54.0,30.05,NE,53,0.0,2.0,95,0.00,,,0.34,weatherlink.com 1.10,2013-04-29 13:15:00,
2013-04-29 09:30:00,55.5,54.0,30.05,ENE,57,0.0,2.0,94,0.00,,,0.34,weatherlink.com 1.10,2013-04-29 13:30:00,
2013-04-29 09:45:00,56.0,55.0,30.05,NNW,340,0.0,1.0,95,0.00,,,0.34,weatherlink.com 1.10,2013-04-29 13:45:00,
2013-04-29 10:00:00,55.9,54.0,30.05,East,79,0.0,3.0,94,0.00,,,0.34,weatherlink.com 1.10,2013-04-29 14:00:00,
2013-04-29 10:15:00,56.4,55.0,30.05,East,84,2.0,3.0,94,0.00,,,0.34,weatherlink.com 1.10,2013-04-29 14:15:00,
2013-04-29 10:30:00,56.6,55.0,30.05,East,96,0.0,1.0,93,0.00,,,0.34,weatherlink.com 1.10,2013-04-29 14:30:00,
2013-04-29 10:45:00,56.3,54.0,30.05,ENE,76,1.0,2.0,93,0.00,,,0.34,weatherlink.com 1.10,2013-04-29 14:45:00,
2013-04-29 11:00:00,56.7,55.0,30.05,East,86,0.0,2.0,94,0.00,,,0.34,weatherlink.com 1.10,2013-04-29 15:00:00,
2013-04-29 11:15:00,57.1,55.0,30.05,ENE,73,0.0,2.0,94,0.00,,,0.34,weatherlink.com 1.10,2013-04-29 15:15:00,
2013-04-29 11:30:00,57.8,56.0,30.05,NNW,329,0.0,2.0,93,0.00,,,0.34,weatherlink.com 1.10,2013-04-29 15:30:00,
2013-04-29 11:45:00,58.3,56.0,30.05,NE,39,0.0,1.0,91,0.00,,,0.34,weatherlink.com 1.10,2013-04-29 15:45:00,
2013-04-29 12:00:00,58.5,56.0,30.05,NNE,33,0.0,3.0,91,0.00,,,0.34,weatherlink.com 1.10,2013-04-29 16:00:00,
2013-04-29 12:16:00,59.3,56.0,30.05,WNW,302,0.0,2.0,90,0.00,,,0.34,weatherlink.com 1.10,2013-04-29 16:16:00,
2013-04-29 12:31:00,59.8,56.0,30.05,NE,53,0.0,2.0,88,0.00,,,0.34,weatherlink.com 1.10,2013-04-29 16:31:00,
2013-04-29 12:46:00,60.0,57.0,30.05,WNW,283,1.0,2.0,88,0.00,,,0.34,weatherlink.com 1.10,2013-04-29 16:46:00,
2013-04-29 13:01:00,61.6,58.0,30.05,NW,313,0.0,1.0,89,0.00,,,0.34,weatherlink.com 1.10,2013-04-29 17:01:00,
2013-04-29 13:16:00,61.8,57.0,30.04,ENE,74,0.0,1.0,85,0.00,,,0.34,weatherlink.com 1.10,2013-04-29 17:16:00,
2013-04-29 13:31:00,62.4,58.0,30.04,SE,137,0.0,2.0,86,0.00,,,0.34,weatherlink.com 1.10,2013-04-29 17:31:00,
2013-04-29 13:46:00,63.0,57.0,30.04,SSW,198,0.0,3.0,81,0.00,,,0.34,weatherlink.com 1.10,2013-04-29 17:46:00,
2013-04-29 14:01:00,63.9,58.0,30.03,NW,318,0.0,1.0,82,0.00,,,0.34,weatherlink.com 1.10,2013-04-29 18:01:00,
2013-04-29 14:16:00,65.3,59.0,30.02,NE,37,0.0,2.0,81,0.00,,,0.34,weatherlink.com 1.10,2013-04-29 18:16:00,
2013-04-29 14:31:00,65.5,59.0,30.02,SSE,156,0.0,1.0,80,0.00,,,0.34,weatherlink.com 1.10,2013-04-29 18:31:00,
2013-04-29 14:46:00,66.3,59.0,30.01,West,274,0.0,1.0,78,0.00,,,0.34,weatherlink.com 1.10,2013-04-29 18:46:00,
2013-04-29 15:01:00,67.1,60.0,30.01,ESE,105,0.0,1.0,77,0.00,,,0.34,weatherlink.com 1.10,2013-04-29 19:01:00,
2013-04-29 15:16:00,68.0,61.0,30.01,WSW,240,0.0,1.0,77,0.00,,,0.34,weatherlink.com 1.10,2013-04-29 19:16:00,
2013-04-29 15:31:00,67.9,60.0,30.00,NNW,335,0.0,1.0,77,0.00,,,0.34,weatherlink.com 1.10,2013-04-29 19:31:00,
2013-04-29 15:46:00,67.7,60.0,29.99,East,101,0.0,1.0,76,0.00,,,0.34,weatherlink.com 1.10,2013-04-29 19:46:00,
2013-04-29 16:01:00,68.1,60.0,29.98,NW,304,2.0,3.0,76,0.00,,,0.34,weatherlink.com 1.10,2013-04-29 20:01:00,
2013-04-29 16:16:00,68.0,60.0,29.98,SSE,167,0.0,3.0,75,0.00,,,0.34,weatherlink.com 1.10,2013-04-29 20:16:00,
2013-04-29 16:31:00,69.2,60.0,29.98,SE,141,0.0,1.0,73,0.00,,,0.34,weatherlink.com 1.10,2013-04-29 20:31:00,
2013-04-29 16:46:00,71.5,60.0,29.97,SSE,159,1.0,1.0,67,0.00,,,0.34,weatherlink.com 1.10,2013-04-29 20:46:00,
2013-04-29 17:01:00,70.2,59.0,29.97,WSW,254,0.0,1.0,68,0.00,,,0.34,weatherlink.com 1.10,2013-04-29 21:01:00,
2013-04-29 17:16:00,71.1,59.0,29.96,East,84,0.0,2.0,66,0.00,,,0.34,weatherlink.com 1.10,2013-04-29 21:16:00,
2013-04-29 17:31:00,71.6,59.0,29.96,SSE,148,0.0,3.0,65,0.00,,,0.34,weatherlink.com 1.10,2013-04-29 21:31:00,
2013-04-29 17:46:00,69.9,58.0,29.96,South,172,0.0,4.0,67,0.00,,,0.34,weatherlink.com 1.10,2013-04-29 21:46:00,
2013-04-29 18:01:00,69.8,58.0,29.96,SE,146,0.0,0.0,67,0.00,,,0.34,weatherlink.com 1.10,2013-04-29 22:01:00,
2013-04-29 18:16:00,69.2,59.0,29.96,South,181,0.0,1.0,69,0.00,,,0.34,weatherlink.com 1.10,2013-04-29 22:16:00,
2013-04-29 18:31:00,68.5,59.0,29.96,South,181,0.0,0.0,71,0.00,,,0.34,weatherlink.com 1.10,2013-04-29 22:31:00,
2013-04-29 18:46:00,67.1,59.0,29.96,South,181,0.0,0.0,75,0.00,,,0.34,weatherlink.com 1.10,2013-04-29 22:46:00,
2013-04-29 19:01:00,66.1,59.0,29.97,South,180,0.0,0.0,77,0.00,,,0.34,weatherlink.com 1.10,2013-04-29 23:01:00,
2013-04-29 19:16:00,66.4,59.0,29.97,SW,221,0.0,1.0,76,0.00,,,0.34,weatherlink.com 1.10,2013-04-29 23:16:00,
2013-04-29 19:31:00,65.9,59.0,29.98,SW,221,0.0,0.0,78,0.00,,,0.34,weatherlink.com 1.10,2013-04-29 23:31:00,
2013-04-29 20:01:00,65.0,59.0,29.98,ENE,61,0.0,1.0,81,0.00,,,0.34,weatherlink.com 1.10,2013-04-30 00:01:00,
2013-04-29 20:16:00,64.7,59.0,29.99,ENE,70,3.0,4.0,82,0.00,,,0.34,weatherlink.com 1.10,2013-04-30 00:16:00,
2013-04-29 20:31:00,64.5,59.0,29.99,NE,53,0.0,1.0,83,0.00,,,0.34,weatherlink.com 1.10,2013-04-30 00:31:00,
2013-04-29 20:46:00,63.3,59.0,30.00,NE,53,0.0,0.0,85,0.00,,,0.34,weatherlink.com 1.10,2013-04-30 00:46:00,
2013-04-29 21:02:00,62.9,59.0,30.00,ENE,60,0.0,3.0,86,0.00,,,0.34,weatherlink.com 1.10,2013-04-30 01:02:00,
2013-04-29 21:17:00,62.1,59.0,30.00,East,82,0.0,1.0,88,0.00,,,0.34,weatherlink.com 1.10,2013-04-30 01:17:00,
2013-04-29 21:32:00,62.6,59.0,30.00,ENE,72,0.0,3.0,88,0.00,,,0.34,weatherlink.com 1.10,2013-04-30 01:32:00,
2013-04-29 21:47:00,62.3,59.0,30.01,East,82,0.0,2.0,88,0.00,,,0.34,weatherlink.com 1.10,2013-04-30 01:47:00,
2013-04-29 22:02:00,62.1,59.0,30.01,North,11,0.0,0.0,88,0.00,,,0.34,weatherlink.com 1.10,2013-04-30 02:02:00,
2013-04-29 22:17:00,61.4,59.0,30.02,SSW,208,0.0,0.0,90,0.00,,,0.34,weatherlink.com 1.10,2013-04-30 02:17:00,
2013-04-29 22:32:00,60.7,58.0,30.02,SSW,208,0.0,1.0,91,0.00,,,0.34,weatherlink.com 1.10,2013-04-30 02:32:00,
2013-04-29 22:47:00,60.3,58.0,30.02,West,278,0.0,1.0,92,0.00,,,0.34,weatherlink.com 1.10,2013-04-30 02:47:00,
2013-04-29 23:02:00,60.1,58.0,30.02,ENE,67,0.0,0.0,92,0.00,,,0.34,weatherlink.com 1.10,2013-04-30 03:02:00,
2013-04-29 23:17:00,59.7,58.0,30.02,ENE,66,0.0,0.0,93,0.00,,,0.34,weatherlink.com 1.10,2013-04-30 03:17:00,
2013-04-29 23:32:00,60.2,58.0,30.01,NE,44,0.0,2.0,92,0.00,,,0.34,weatherlink.com 1.10,2013-04-30 03:32:00,
2013-04-29 23:47:00,61.0,58.0,30.01,ENE,58,0.0,4.0,91,0.00,,,0.34,weatherlink.com 1.10,2013-04-30 03:47:00,